Torna al catalogo

TIANTIE KEJI

AttivoScienzaSSO
NORAD 63990·PAYLOAD·🇨🇳 China
Questo nome del satellite non è ancora stato confermato da fonti ufficiali.

Lanciato May 14, 2025 da Jiuquan Satellite Launch Center

Loading…

Prossimi Passaggi (prossime 24 ore)

TLE

AggiornatoSource: Space-Track

Epoca: Sep 14, 2026, 21:53 UTC

1 63990U 25100J   26257.91200499  .00015696  00000-0  63713-3 0  9991
2 63990  97.3549 332.6901 0006105   0.0969   0.0269 15.24664957 74520

Traccia TIANTIE KEJI in tempo reale con AllMySat

Download on the App Store